Location: Ansan
(43.6898°N, 0.7731°E)
Time: 05:01:43
(UTC+00:00)

COSMOS 2428 - Pass Details

Date: 15 May 2026
Orbit: 844 x 855 km, 70.9° (Epoch: 6 June)

Event Time Altitude Azimuth Distance (km) Brightness Sun altitude
Rises 22:50:42 0° 336° (NNW) 3,422 7.2 -25.6°
Reaches altitude 10° 22:53:11 10° 339° (NNW) 2,481 6.2 -25.8°
Maximum altitude 22:58:52 70° 63° (ENE) 900 2.8 -26.0°
Enters shadow 22:59:33 63° 107° (ESE) 940 2.7 -26.1°
